| time (UTC) | temp F | wind direction | speed knots | gust knots | rain 1hr in | rain 24hr in | rain mn in | humidity % | barometer mb |
| 20260505034522 | 55 | 217 | 5.2 | 11.3 | 0.00 | 0.00 | 0.00 | 85 | 1012.8 |
| 20260505033024 | 55 | 163 | 4.3 | 11.3 | 0.00 | 0.00 | 0.00 | 85 | 1012.8 |
| 20260505031527 | 55 | 211 | 6.1 | 14.8 | 0.00 | 0.00 | 0.00 | 85 | 1012.8 |
| 20260505024512 | 55 | 207 | 6.1 | 13.9 | 0.00 | 0.00 | 0.00 | 85 | 1013.0 |
| 20260505023003 | 55 | 193 | 6.1 | 14.8 | 0.00 | 0.00 | 0.00 | 86 | 1013.1 |
| 20260505021504 | 55 | 204 | 7.0 | 13.9 | 0.00 | 0.00 | 0.00 | 86 | 1013.1 |
| 20260505020004 | 55 | 201 | 4.3 | 13.0 | 0.00 | 0.00 | 0.00 | 85 | 1013.1 |
| 20260505014508 | 55 | 175 | 5.2 | 11.3 | 0.00 | 0.00 | 0.00 | 85 | 1013.1 |
| 20260505013017 | 55 | 161 | 6.1 | 12.2 | 0.00 | 0.00 | 0.00 | 84 | 1013.1 |
| 20260505011506 | 55 | 196 | 7.8 | 13.9 | 0.00 | 0.00 | 0.00 | 83 | 1012.9 |
| 20260505010008 | 55 | 229 | 8.7 | 14.8 | 0.00 | 0.00 | 0.00 | 82 | 1012.8 |
| 20260505004508 | 56 | 231 | 7.8 | 14.8 | 0.00 | 0.00 | 0.00 | 81 | 1012.8 |
| 20260505003010 | 56 | 212 | 9.6 | 19.1 | 0.00 | 0.00 | 0.00 | 80 | 1012.6 |
| 20260505001506 | 57 | 203 | 9.6 | 17.4 | 0.00 | 0.00 | 0.00 | 79 | 1012.4 |
| 20260505000026 | 57 | 193 | 9.6 | 17.4 | 0.00 | 0.00 | 0.00 | 78 | 1012.3 |
| 20260504234508 | 57 | 200 | 7.0 | 13.9 | 0.00 | 0.00 | 0.00 | 77 | 1012.0 |
| 20260504233015 | 59 | 218 | 9.6 | 17.4 | 0.00 | 0.00 | 0.00 | 74 | 1012.2 |
| 20260504231522 | 60 | 186 | 10.4 | 17.4 | 0.00 | 0.00 | 0.00 | 72 | 1012.1 |
| 20260504230008 | 61 | 215 | 8.7 | 13.0 | 0.00 | 0.00 | 0.00 | 70 | 1012.2 |
| 20260504224508 | 62 | 209 | 7.0 | 14.8 | 0.00 | 0.00 | 0.00 | 68 | 1012.2 |
| 20260504223009 | 63 | 204 | 7.0 | 12.2 | 0.00 | 0.00 | 0.00 | 66 | 1012.1 |
| 20260504221510 | 64 | 165 | 6.1 | 13.0 | 0.00 | 0.00 | 0.00 | 65 | 1012.1 |
| 20260504220018 | 65 | 212 | 3.5 | 9.6 | 0.00 | 0.00 | 0.00 | 64 | 1012.1 |
| 20260504214510 | 66 | 205 | 4.3 | 7.8 | 0.00 | 0.00 | 0.00 | 62 | 1012.0 |
| 20260504213014 | 65 | 194 | 2.6 | 8.7 | 0.00 | 0.00 | 0.00 | 64 | 1012.2 |
| 20260504211513 | 65 | 207 | 5.2 | 10.4 | 0.00 | 0.00 | 0.00 | 64 | 1012.5 |
| 20260504210012 | 65 | 170 | 6.1 | 11.3 | 0.00 | 0.00 | 0.00 | 64 | 1012.5 |
| 20260504204523 | 64 | 197 | 4.3 | 12.2 | 0.00 | 0.00 | 0.00 | 65 | 1012.7 |
| 20260504203020 | 63 | 204 | 6.1 | 13.9 | 0.00 | 0.00 | 0.00 | 67 | 1012.8 |
| 20260504201512 | 63 | 194 | 7.8 | 13.9 | 0.00 | 0.00 | 0.00 | 67 | 1012.8 |
| 20260504200024 | 64 | 195 | 8.7 | 13.9 | 0.00 | 0.00 | 0.00 | 65 | 1012.9 |
| 20260504194531 | 63 | 171 | 6.1 | 11.3 | 0.00 | 0.00 | 0.00 | 66 | 1013.1 |
| 20260504193020 | 62 | 192 | 5.2 | 13.0 | 0.00 | 0.00 | 0.00 | 68 | 1013.1 |
| 20260504191507 | 62 | 180 | 7.0 | 14.8 | 0.00 | 0.00 | 0.00 | 68 | 1013.2 |
| 20260504190010 | 61 | 105 | 8.7 | 16.5 | 0.00 | 0.00 | 0.00 | 69 | 1013.4 |
| 20260504184514 | 61 | 161 | 8.7 | 14.8 | 0.00 | 0.00 | 0.00 | 69 | 1013.5 |
| 20260504183004 | 61 | 190 | 9.6 | 20.0 | 0.00 | 0.00 | 0.00 | 68 | 1013.7 |
| 20260504181503 | 62 | 207 | 10.4 | 14.8 | 0.00 | 0.00 | 0.00 | 67 | 1013.8 |
| 20260504180013 | 61 | 178 | 7.8 | 13.9 | 0.00 | 0.00 | 0.00 | 67 | 1013.8 |
| 20260504174512 | 61 | 179 | 8.7 | 16.5 | 0.00 | 0.00 | 0.00 | 68 | 1014.0 |
| 20260504173020 | 61 | 200 | 8.7 | 16.5 | 0.00 | 0.00 | 0.00 | 68 | 1014.2 |
| 20260504171504 | 61 | 193 | 7.8 | 13.9 | 0.00 | 0.00 | 0.00 | 68 | 1014.5 |
| 20260504081518 | 50 | 200 | 3.5 | 8.7 | 0.00 | 0.00 | 0.00 | 70 | 1016.5 |
| 20260504050016 | 52 | 246 | 3.5 | 10.4 | 0.00 | 0.00 | 0.00 | 53 | 1016.0 |
| 20260504044519 | 52 | 219 | 4.3 | 11.3 | 0.00 | 0.00 | 0.00 | 53 | 1015.9 |
| 20260504043024 | 53 | 224 | 5.2 | 11.3 | 0.00 | 0.00 | 0.00 | 52 | 1015.8 |
| 20260504041527 | 53 | 234 | 7.8 | 12.2 | 0.00 | 0.00 | 0.00 | 51 | 1015.9 |
| 20260504040031 | 53 | 228 | 5.2 | 10.4 | 0.00 | 0.00 | 0.00 | 51 | 1015.6 |